Year,Month,Day,Hour,Minute,Value (Times are PST for temperature in C)
2014,09,18,00,00,14.80
2014,09,18,00,01,14.80
2014,09,18,00,02,14.70
2014,09,18,00,03,14.70
2014,09,18,00,04,14.70
2014,09,18,00,05,14.70
2014,09,18,00,06,14.70
2014,09,18,00,07,14.70
2014,09,18,00,08,14.70
2014,09,18,00,09,14.70
2014,09,18,00,10,14.70
2014,09,18,00,11,14.70
2014,09,18,00,12,14.70
2014,09,18,00,13,14.70
2014,09,18,00,14,14.70
2014,09,18,00,15,14.70
2014,09,18,00,16,14.70
2014,09,18,00,17,14.70
2014,09,18,00,18,14.70
2014,09,18,00,19,14.70
2014,09,18,00,20,14.70
2014,09,18,00,21,14.70
2014,09,18,00,22,14.70
2014,09,18,00,23,14.70
2014,09,18,00,24,14.70
2014,09,18,00,25,14.70
2014,09,18,00,26,14.70
2014,09,18,00,27,14.70
2014,09,18,00,28,14.70
2014,09,18,00,29,14.70
2014,09,18,00,30,14.70
2014,09,18,00,31,14.70
2014,09,18,00,32,14.70
2014,09,18,00,33,14.70
2014,09,18,00,34,14.70
2014,09,18,00,35,14.70
2014,09,18,00,36,14.70
2014,09,18,00,37,14.70
2014,09,18,00,38,14.70
2014,09,18,00,39,14.70
2014,09,18,00,40,14.70
2014,09,18,00,41,14.70
2014,09,18,00,42,14.70
2014,09,18,00,43,14.70
2014,09,18,00,44,14.80
2014,09,18,00,45,14.80
2014,09,18,00,46,14.80
2014,09,18,00,47,14.80
2014,09,18,00,48,14.80
2014,09,18,00,49,14.80
2014,09,18,00,50,14.80
2014,09,18,00,51,14.80
2014,09,18,00,52,14.80
2014,09,18,00,53,14.80
2014,09,18,00,54,14.70
2014,09,18,00,55,14.70
2014,09,18,00,56,14.70
2014,09,18,00,57,14.70
2014,09,18,00,58,14.70
2014,09,18,00,59,14.70
2014,09,18,01,00,14.70
2014,09,18,01,01,14.70
2014,09,18,01,02,14.70
2014,09,18,01,03,14.70
2014,09,18,01,04,14.70
2014,09,18,01,05,14.70
2014,09,18,01,06,14.70
2014,09,18,01,07,14.70
2014,09,18,01,08,14.70
2014,09,18,01,09,14.70
2014,09,18,01,10,14.70
2014,09,18,01,11,14.70
2014,09,18,01,12,14.70
2014,09,18,01,13,14.70
2014,09,18,01,14,14.70
2014,09,18,01,15,14.70
2014,09,18,01,16,14.70
2014,09,18,01,17,14.70
2014,09,18,01,18,14.70
2014,09,18,01,19,14.60
2014,09,18,01,20,14.60
2014,09,18,01,21,14.70
2014,09,18,01,22,14.70
2014,09,18,01,23,14.70
2014,09,18,01,24,14.70
2014,09,18,01,25,14.60
2014,09,18,01,26,14.60
2014,09,18,01,27,14.60
2014,09,18,01,28,14.60
2014,09,18,01,29,14.60
2014,09,18,01,30,14.60
2014,09,18,01,31,14.60
2014,09,18,01,32,14.60
2014,09,18,01,33,14.60
2014,09,18,01,34,14.60
2014,09,18,01,35,14.60
2014,09,18,01,36,14.60
2014,09,18,01,37,14.60
2014,09,18,01,38,14.60
2014,09,18,01,39,14.60
2014,09,18,01,40,14.60
2014,09,18,01,41,14.60
2014,09,18,01,42,14.60
2014,09,18,01,43,14.60
2014,09,18,01,44,14.60
2014,09,18,01,45,14.60
2014,09,18,01,46,14.60
2014,09,18,01,47,14.60
2014,09,18,01,48,14.60
2014,09,18,01,49,14.60
2014,09,18,01,50,14.60
2014,09,18,01,51,14.60
2014,09,18,01,52,14.60
2014,09,18,01,53,14.50
2014,09,18,01,54,14.50
2014,09,18,01,55,14.50
2014,09,18,01,56,14.50
2014,09,18,01,57,14.50
2014,09,18,01,58,14.50
2014,09,18,01,59,14.50
2014,09,18,02,00,14.50
2014,09,18,02,01,14.50
2014,09,18,02,02,14.50
2014,09,18,02,03,14.50
2014,09,18,02,04,14.50
2014,09,18,02,05,14.50
2014,09,18,02,06,14.50
2014,09,18,02,07,14.50
2014,09,18,02,08,14.50
2014,09,18,02,09,14.50
2014,09,18,02,10,14.50
2014,09,18,02,11,14.50
2014,09,18,02,12,14.50
2014,09,18,02,13,14.50
2014,09,18,02,14,14.50
2014,09,18,02,15,14.50
2014,09,18,02,16,14.50
2014,09,18,02,17,14.50
2014,09,18,02,18,14.50
2014,09,18,02,19,14.50
2014,09,18,02,20,14.50
2014,09,18,02,21,14.50
2014,09,18,02,22,14.50
2014,09,18,02,23,14.50
2014,09,18,02,24,14.50
2014,09,18,02,25,14.50
2014,09,18,02,26,14.50
2014,09,18,02,27,14.50
2014,09,18,02,28,14.50
2014,09,18,02,29,14.50
2014,09,18,02,30,14.50
2014,09,18,02,31,14.50
2014,09,18,02,32,14.50
2014,09,18,02,33,14.50
2014,09,18,02,34,14.50
2014,09,18,02,35,14.40
2014,09,18,02,36,14.50
2014,09,18,02,37,14.50
2014,09,18,02,38,14.50
2014,09,18,02,39,14.50
2014,09,18,02,40,14.50
2014,09,18,02,41,14.50
2014,09,18,02,42,14.50
2014,09,18,02,43,14.50
2014,09,18,02,44,14.50
2014,09,18,02,45,14.50
2014,09,18,02,46,14.50
2014,09,18,02,47,14.50
2014,09,18,02,48,14.40
2014,09,18,02,49,14.50
2014,09,18,02,50,14.50
2014,09,18,02,51,14.40
2014,09,18,02,52,14.40
2014,09,18,02,53,14.40
2014,09,18,02,54,14.40
2014,09,18,02,55,14.40
2014,09,18,02,56,14.40
2014,09,18,02,57,14.40
2014,09,18,02,58,14.40
2014,09,18,02,59,14.40
2014,09,18,03,00,14.40
2014,09,18,03,01,14.40
2014,09,18,03,02,14.40
2014,09,18,03,03,14.40
2014,09,18,03,04,14.30
2014,09,18,03,05,14.40
2014,09,18,03,06,14.30
2014,09,18,03,07,14.30
2014,09,18,03,08,14.30
2014,09,18,03,09,14.30
2014,09,18,03,10,14.30
2014,09,18,03,11,14.30
2014,09,18,03,12,14.30
2014,09,18,03,13,14.30
2014,09,18,03,14,14.30
2014,09,18,03,15,14.30
2014,09,18,03,16,14.30
2014,09,18,03,17,14.30
2014,09,18,03,18,14.30
2014,09,18,03,19,14.30
2014,09,18,03,20,14.30
2014,09,18,03,21,14.30
2014,09,18,03,22,14.30
2014,09,18,03,23,14.30
2014,09,18,03,24,14.30
2014,09,18,03,25,14.30
2014,09,18,03,26,14.30
2014,09,18,03,27,14.30
2014,09,18,03,28,14.30
2014,09,18,03,29,14.30
2014,09,18,03,30,14.30
2014,09,18,03,31,14.30
2014,09,18,03,32,14.30
2014,09,18,03,33,14.30
2014,09,18,03,34,14.30
2014,09,18,03,35,14.30
2014,09,18,03,36,14.30
2014,09,18,03,37,14.30
2014,09,18,03,38,14.30
2014,09,18,03,39,14.30
2014,09,18,03,40,14.30
2014,09,18,03,41,14.30
2014,09,18,03,42,14.30
2014,09,18,03,43,14.30
2014,09,18,03,44,14.30
2014,09,18,03,45,14.30
2014,09,18,03,46,14.30
2014,09,18,03,47,14.30
2014,09,18,03,48,14.30
2014,09,18,03,49,14.30
2014,09,18,03,50,14.30
2014,09,18,03,51,14.30
2014,09,18,03,52,14.30
2014,09,18,03,53,14.30
2014,09,18,03,54,14.30
2014,09,18,03,55,14.30
2014,09,18,03,56,14.30
2014,09,18,03,57,14.30
2014,09,18,03,58,14.30
2014,09,18,03,59,14.30
2014,09,18,04,00,14.30
2014,09,18,04,01,14.30
2014,09,18,04,02,14.30
2014,09,18,04,03,14.30
2014,09,18,04,04,14.30
2014,09,18,04,05,14.30
2014,09,18,04,06,14.30
2014,09,18,04,07,14.30
2014,09,18,04,08,14.30
2014,09,18,04,09,14.30
2014,09,18,04,10,14.30
2014,09,18,04,11,14.30
2014,09,18,04,12,14.30
2014,09,18,04,13,14.30
2014,09,18,04,14,14.30
2014,09,18,04,15,14.30
2014,09,18,04,16,14.30
2014,09,18,04,17,14.20
2014,09,18,04,18,14.20
2014,09,18,04,19,14.20
2014,09,18,04,20,14.20
2014,09,18,04,21,14.20
2014,09,18,04,22,14.20
2014,09,18,04,23,14.20
2014,09,18,04,24,14.20
2014,09,18,04,25,14.20
2014,09,18,04,26,14.20
2014,09,18,04,27,14.20
2014,09,18,04,28,14.20
2014,09,18,04,29,14.20
2014,09,18,04,30,14.20
2014,09,18,04,31,14.20
2014,09,18,04,32,14.20
2014,09,18,04,33,14.20
2014,09,18,04,34,14.20
2014,09,18,04,35,14.20
2014,09,18,04,36,14.20
2014,09,18,04,37,14.20
2014,09,18,04,38,14.20
2014,09,18,04,39,14.20
2014,09,18,04,40,14.20
2014,09,18,04,41,14.20
2014,09,18,04,42,14.20
2014,09,18,04,43,14.20
2014,09,18,04,44,14.20
2014,09,18,04,45,14.20
2014,09,18,04,46,14.20
2014,09,18,04,47,14.20
2014,09,18,04,48,14.20
2014,09,18,04,49,14.20
2014,09,18,04,50,14.20
2014,09,18,04,51,14.20
2014,09,18,04,52,14.20
2014,09,18,04,53,14.20
2014,09,18,04,54,14.20
2014,09,18,04,55,14.20
2014,09,18,04,56,14.20
2014,09,18,04,57,14.20
2014,09,18,04,58,14.20
2014,09,18,04,59,14.20
2014,09,18,05,00,14.20
2014,09,18,05,01,14.20
2014,09,18,05,02,14.20
2014,09,18,05,03,14.20
2014,09,18,05,04,14.20
2014,09,18,05,05,14.20
2014,09,18,05,06,14.20
2014,09,18,05,07,14.20
2014,09,18,05,08,14.20
2014,09,18,05,09,14.20
2014,09,18,05,10,14.20
2014,09,18,05,11,14.20
2014,09,18,05,12,14.20
2014,09,18,05,13,14.20
2014,09,18,05,14,14.20
2014,09,18,05,15,14.20
2014,09,18,05,16,14.20
2014,09,18,05,17,14.20
2014,09,18,05,18,14.20
2014,09,18,05,19,14.20
2014,09,18,05,20,14.20
2014,09,18,05,21,14.20
2014,09,18,05,22,14.20
2014,09,18,05,23,14.20
2014,09,18,05,24,14.20
2014,09,18,05,25,14.20
2014,09,18,05,26,14.20
2014,09,18,05,27,14.20
2014,09,18,05,28,14.20
2014,09,18,05,29,14.20
2014,09,18,05,30,14.20
2014,09,18,05,31,14.20
2014,09,18,05,32,14.20
2014,09,18,05,33,14.20
2014,09,18,05,34,14.20
2014,09,18,05,35,14.20
2014,09,18,05,36,14.20
2014,09,18,05,37,14.20
2014,09,18,05,38,14.20
2014,09,18,05,39,14.20
2014,09,18,05,40,14.20
2014,09,18,05,41,14.20
2014,09,18,05,42,14.20
2014,09,18,05,43,14.20
2014,09,18,05,44,14.20
2014,09,18,05,45,14.20
2014,09,18,05,46,14.20
2014,09,18,05,47,14.20
2014,09,18,05,48,14.20
2014,09,18,05,49,14.20
2014,09,18,05,50,14.20
2014,09,18,05,51,14.20
2014,09,18,05,52,14.20
2014,09,18,05,53,14.20
2014,09,18,05,54,14.20
2014,09,18,05,55,14.20
2014,09,18,05,56,14.20
2014,09,18,05,57,14.20
2014,09,18,05,58,14.20
2014,09,18,05,59,14.20
2014,09,18,06,00,14.20
2014,09,18,06,01,14.20
2014,09,18,06,02,14.20
2014,09,18,06,03,14.20
2014,09,18,06,04,14.20
2014,09,18,06,05,14.20
2014,09,18,06,06,14.20
2014,09,18,06,07,14.10
2014,09,18,06,08,14.10
2014,09,18,06,09,14.10
2014,09,18,06,10,14.10
2014,09,18,06,11,14.10
2014,09,18,06,12,14.10
2014,09,18,06,13,14.10
2014,09,18,06,14,14.10
2014,09,18,06,15,14.10
2014,09,18,06,16,14.10
2014,09,18,06,17,14.10
2014,09,18,06,18,14.10
2014,09,18,06,19,14.10
2014,09,18,06,20,14.10
2014,09,18,06,21,14.10
2014,09,18,06,22,14.10
2014,09,18,06,23,14.10
2014,09,18,06,24,14.10
2014,09,18,06,25,14.10
2014,09,18,06,26,14.10
2014,09,18,06,27,14.10
2014,09,18,06,28,14.10
2014,09,18,06,29,14.10
2014,09,18,06,30,14.10
2014,09,18,06,31,14.10
2014,09,18,06,32,14.10
2014,09,18,06,33,14.10
2014,09,18,06,34,14.10
2014,09,18,06,35,14.10
2014,09,18,06,36,14.10
2014,09,18,06,37,14.10
2014,09,18,06,38,14.10
2014,09,18,06,39,14.10
2014,09,18,06,40,14.10
2014,09,18,06,41,14.10
2014,09,18,06,42,14.10
2014,09,18,06,43,14.10
2014,09,18,06,44,14.10
2014,09,18,06,45,14.10
2014,09,18,06,46,14.10
2014,09,18,06,47,14.10
2014,09,18,06,48,14.10
2014,09,18,06,49,14.10
2014,09,18,06,50,14.10
2014,09,18,06,51,14.10
2014,09,18,06,52,14.10
2014,09,18,06,53,14.10
2014,09,18,06,54,14.10
2014,09,18,06,55,14.10
2014,09,18,06,56,14.10
2014,09,18,06,57,14.10
2014,09,18,06,58,14.10
2014,09,18,06,59,14.10
2014,09,18,07,00,14.10
2014,09,18,07,01,14.10
2014,09,18,07,02,14.10
2014,09,18,07,03,14.10
2014,09,18,07,04,14.10
2014,09,18,07,05,14.10
2014,09,18,07,06,14.10
2014,09,18,07,07,14.00
2014,09,18,07,08,14.00
2014,09,18,07,09,14.00
2014,09,18,07,10,14.00
2014,09,18,07,11,14.00
2014,09,18,07,12,14.00
2014,09,18,07,13,14.00
2014,09,18,07,14,14.00
2014,09,18,07,15,14.00
2014,09,18,07,16,14.00
2014,09,18,07,17,14.00
2014,09,18,07,18,14.00
2014,09,18,07,19,14.00
2014,09,18,07,20,14.00
2014,09,18,07,21,14.00
2014,09,18,07,22,14.00
2014,09,18,07,23,14.00
2014,09,18,07,24,14.00
2014,09,18,07,25,14.00
2014,09,18,07,26,14.00
2014,09,18,07,27,14.00
2014,09,18,07,28,13.90
2014,09,18,07,29,14.00
2014,09,18,07,30,14.00
2014,09,18,07,31,13.90
2014,09,18,07,32,13.90
2014,09,18,07,33,13.90
2014,09,18,07,34,13.90
2014,09,18,07,35,13.90
2014,09,18,07,36,13.90
2014,09,18,07,37,13.90
2014,09,18,07,38,13.90
2014,09,18,07,39,13.90
2014,09,18,07,40,13.90
2014,09,18,07,41,13.90
2014,09,18,07,42,13.90
2014,09,18,07,43,13.90
2014,09,18,07,44,13.90
2014,09,18,07,45,13.90
2014,09,18,07,46,13.90
2014,09,18,07,47,13.90
2014,09,18,07,48,13.90
2014,09,18,07,49,13.90
2014,09,18,07,50,13.90
2014,09,18,07,51,13.90
2014,09,18,07,52,13.90
2014,09,18,07,53,13.90
2014,09,18,07,54,13.90
2014,09,18,07,55,13.90
2014,09,18,07,56,13.90
2014,09,18,07,57,13.90
2014,09,18,07,58,13.90
2014,09,18,07,59,13.90
2014,09,18,08,00,13.90
2014,09,18,08,01,13.90
2014,09,18,08,02,13.90
2014,09,18,08,03,13.90
2014,09,18,08,04,13.90
2014,09,18,08,05,13.90
2014,09,18,08,06,13.90
2014,09,18,08,07,13.90
2014,09,18,08,08,13.90
2014,09,18,08,09,13.90
2014,09,18,08,10,13.90
2014,09,18,08,11,13.90
2014,09,18,08,12,13.90
2014,09,18,08,13,13.90
2014,09,18,08,14,13.90
2014,09,18,08,15,13.90
2014,09,18,08,16,14.00
2014,09,18,08,17,14.00
2014,09,18,08,18,14.00
2014,09,18,08,19,14.00
2014,09,18,08,20,14.00
2014,09,18,08,21,14.00
2014,09,18,08,22,14.00
2014,09,18,08,23,14.00
2014,09,18,08,24,14.00
2014,09,18,08,25,14.00
2014,09,18,08,26,14.10
2014,09,18,08,27,14.10
2014,09,18,08,28,14.10
2014,09,18,08,29,14.10
2014,09,18,08,30,14.10
2014,09,18,08,31,14.10
2014,09,18,08,32,14.10
2014,09,18,08,33,14.10
2014,09,18,08,34,14.10
2014,09,18,08,35,14.10
2014,09,18,08,36,14.10
2014,09,18,08,37,14.10
2014,09,18,08,38,14.10
2014,09,18,08,39,14.20
2014,09,18,08,40,14.20
2014,09,18,08,41,14.20
2014,09,18,08,42,14.20
2014,09,18,08,43,14.20
2014,09,18,08,44,14.20
2014,09,18,08,45,14.20
2014,09,18,08,46,14.20
2014,09,18,08,47,14.30
2014,09,18,08,48,14.30
2014,09,18,08,49,14.30
2014,09,18,08,50,14.30
2014,09,18,08,51,14.30
2014,09,18,08,52,14.30
2014,09,18,08,53,14.30
2014,09,18,08,54,14.30
2014,09,18,08,55,14.30
2014,09,18,08,56,14.30
2014,09,18,08,57,14.30
2014,09,18,08,58,14.30
2014,09,18,08,59,14.30
2014,09,18,09,00,14.30
2014,09,18,09,01,14.30
2014,09,18,09,02,14.30
2014,09,18,09,03,14.30
2014,09,18,09,04,14.40
2014,09,18,09,05,14.40
2014,09,18,09,06,14.40
2014,09,18,09,07,14.40
2014,09,18,09,08,14.50
2014,09,18,09,09,14.50
2014,09,18,09,10,14.60
2014,09,18,09,11,14.60
2014,09,18,09,12,14.60
2014,09,18,09,13,14.60
2014,09,18,09,14,14.70
2014,09,18,09,15,14.70
2014,09,18,09,16,14.70
2014,09,18,09,17,14.70
2014,09,18,09,18,14.70
2014,09,18,09,19,14.70
2014,09,18,09,20,14.70
2014,09,18,09,21,14.70
2014,09,18,09,22,14.70
2014,09,18,09,23,14.70
2014,09,18,09,24,14.70
2014,09,18,09,25,14.70
2014,09,18,09,26,14.80
2014,09,18,09,27,14.80
2014,09,18,09,28,14.80
2014,09,18,09,29,14.80
2014,09,18,09,30,14.80
2014,09,18,09,31,14.80
2014,09,18,09,32,14.80
2014,09,18,09,33,14.80
2014,09,18,09,34,14.80
2014,09,18,09,35,14.80
2014,09,18,09,36,14.80
2014,09,18,09,37,14.80
2014,09,18,09,38,14.80
2014,09,18,09,39,14.80
2014,09,18,09,40,14.80
2014,09,18,09,41,14.80
2014,09,18,09,42,14.80
2014,09,18,09,43,14.90
2014,09,18,09,44,14.90
2014,09,18,09,45,14.90
2014,09,18,09,46,14.90
2014,09,18,09,47,14.90
2014,09,18,09,48,14.90
2014,09,18,09,49,14.90
2014,09,18,09,50,14.90
2014,09,18,09,51,14.90
2014,09,18,09,52,14.90
2014,09,18,09,53,14.90
2014,09,18,09,54,15.00
2014,09,18,09,55,15.00
2014,09,18,09,56,15.00
2014,09,18,09,57,15.00
2014,09,18,09,58,15.00
2014,09,18,09,59,15.00
2014,09,18,10,00,15.10
2014,09,18,10,01,15.10
2014,09,18,10,02,15.10
2014,09,18,10,03,15.10
2014,09,18,10,04,15.10
2014,09,18,10,05,15.10
2014,09,18,10,06,15.10
2014,09,18,10,07,15.10
2014,09,18,10,08,15.10
2014,09,18,10,09,15.10
2014,09,18,10,10,15.10
2014,09,18,10,11,15.20
2014,09,18,10,12,15.20
2014,09,18,10,13,15.20
2014,09,18,10,14,15.20
2014,09,18,10,15,15.20
2014,09,18,10,16,15.20
2014,09,18,10,17,15.20
2014,09,18,10,18,15.20
2014,09,18,10,19,15.20
2014,09,18,10,20,15.20
2014,09,18,10,21,15.30
2014,09,18,10,22,15.30
2014,09,18,10,23,15.30
2014,09,18,10,24,15.30
2014,09,18,10,25,15.30
2014,09,18,10,26,15.30
2014,09,18,10,27,15.40
2014,09,18,10,28,15.40
2014,09,18,10,29,15.40
2014,09,18,10,30,15.40
2014,09,18,10,31,15.40
2014,09,18,10,32,15.40
2014,09,18,10,33,15.40
2014,09,18,10,34,15.40
2014,09,18,10,35,15.40
2014,09,18,10,36,15.40
2014,09,18,10,37,15.40
2014,09,18,10,38,15.40
2014,09,18,10,39,15.40
2014,09,18,10,40,15.40
2014,09,18,10,41,15.40
2014,09,18,10,42,15.40
2014,09,18,10,43,15.50
2014,09,18,10,44,15.50
2014,09,18,10,45,15.50
2014,09,18,10,46,15.60
2014,09,18,10,47,15.60
2014,09,18,10,48,15.60
2014,09,18,10,49,15.60
2014,09,18,10,50,15.60
2014,09,18,10,51,15.60
2014,09,18,10,52,15.60
2014,09,18,10,53,15.60
2014,09,18,10,54,15.60
2014,09,18,10,55,15.60
2014,09,18,10,56,15.60
2014,09,18,10,57,15.60
2014,09,18,10,58,15.60
2014,09,18,10,59,15.50
2014,09,18,11,00,15.50
2014,09,18,11,01,15.50
2014,09,18,11,02,15.50
2014,09,18,11,03,15.50
2014,09,18,11,04,15.50
2014,09,18,11,05,15.50
2014,09,18,11,06,15.50
2014,09,18,11,07,15.50
2014,09,18,11,08,15.50
2014,09,18,11,09,15.50
2014,09,18,11,10,15.50
2014,09,18,11,11,15.60
2014,09,18,11,12,15.60
2014,09,18,11,13,15.60
2014,09,18,11,14,15.60
2014,09,18,11,15,15.60
2014,09,18,11,16,15.60
2014,09,18,11,17,15.60
2014,09,18,11,18,15.60
2014,09,18,11,19,15.60
2014,09,18,11,20,15.60
2014,09,18,11,21,15.60
2014,09,18,11,22,15.60
2014,09,18,11,23,15.50
2014,09,18,11,24,15.60
2014,09,18,11,25,15.60
2014,09,18,11,26,15.60
2014,09,18,11,27,15.60
2014,09,18,11,28,15.70
2014,09,18,11,29,15.70
2014,09,18,11,30,15.70
2014,09,18,11,31,15.70
2014,09,18,11,32,15.70
2014,09,18,11,33,15.70
2014,09,18,11,34,15.80
2014,09,18,11,35,15.80
2014,09,18,11,36,15.80
2014,09,18,11,37,15.80
2014,09,18,11,38,15.80
2014,09,18,11,39,15.70
2014,09,18,11,40,15.80
2014,09,18,11,41,15.80
2014,09,18,11,42,15.80
2014,09,18,11,43,15.80
2014,09,18,11,44,15.80
2014,09,18,11,45,15.80
2014,09,18,11,46,15.80
2014,09,18,11,47,15.80
2014,09,18,11,48,15.80
2014,09,18,11,49,15.80
2014,09,18,11,50,15.80
2014,09,18,11,51,15.80
2014,09,18,11,52,15.80
2014,09,18,11,53,15.80
2014,09,18,11,54,15.80
2014,09,18,11,55,15.80
2014,09,18,11,56,15.90
2014,09,18,11,57,15.90
2014,09,18,11,58,15.90
2014,09,18,11,59,15.90
2014,09,18,12,00,15.90
2014,09,18,12,01,15.90
2014,09,18,12,02,15.90
2014,09,18,12,03,15.90
2014,09,18,12,04,16.00
2014,09,18,12,05,16.00
2014,09,18,12,06,16.00
2014,09,18,12,07,16.00
2014,09,18,12,08,16.00
2014,09,18,12,09,16.00
2014,09,18,12,10,16.00
2014,09,18,12,11,16.00
2014,09,18,12,12,16.00
2014,09,18,12,13,16.00
2014,09,18,12,14,16.00
2014,09,18,12,15,16.10
2014,09,18,12,16,16.10
2014,09,18,12,17,16.10
2014,09,18,12,18,16.10
2014,09,18,12,19,16.10
2014,09,18,12,20,16.10
2014,09,18,12,21,16.10
2014,09,18,12,22,16.00
2014,09,18,12,23,16.00
2014,09,18,12,24,15.90
2014,09,18,12,25,15.90
2014,09,18,12,26,15.90
2014,09,18,12,27,15.90
2014,09,18,12,28,15.90
2014,09,18,12,29,15.90
2014,09,18,12,30,15.90
2014,09,18,12,31,15.90
2014,09,18,12,32,15.90
2014,09,18,12,33,15.90
2014,09,18,12,34,15.90
2014,09,18,12,35,15.90
2014,09,18,12,36,15.90
2014,09,18,12,37,15.90
2014,09,18,12,38,16.00
2014,09,18,12,39,16.00
2014,09,18,12,40,16.00
2014,09,18,12,41,16.00
2014,09,18,12,42,16.10
2014,09,18,12,43,16.10
2014,09,18,12,44,16.10
2014,09,18,12,45,16.10
2014,09,18,12,46,16.10
2014,09,18,12,47,16.20
2014,09,18,12,48,16.20
2014,09,18,12,49,16.20
2014,09,18,12,50,16.20
2014,09,18,12,51,16.20
2014,09,18,12,52,16.20
2014,09,18,12,53,16.20
2014,09,18,12,54,16.20
2014,09,18,12,55,16.20
2014,09,18,12,56,16.20
2014,09,18,12,57,16.20
2014,09,18,12,58,16.20
2014,09,18,12,59,16.20
2014,09,18,13,00,16.20
2014,09,18,13,01,16.20
2014,09,18,13,02,16.20
2014,09,18,13,03,16.20
2014,09,18,13,04,16.20
2014,09,18,13,05,16.20
2014,09,18,13,06,16.20
2014,09,18,13,07,16.20
2014,09,18,13,08,16.20
2014,09,18,13,09,16.20
2014,09,18,13,10,16.20
2014,09,18,13,11,16.20
2014,09,18,13,12,16.20
2014,09,18,13,13,16.20
2014,09,18,13,14,16.20
2014,09,18,13,15,16.20
2014,09,18,13,16,16.20
2014,09,18,13,17,16.20
2014,09,18,13,18,16.20
2014,09,18,13,19,16.20
2014,09,18,13,20,16.20
2014,09,18,13,21,16.20
2014,09,18,13,22,16.20
2014,09,18,13,23,16.20
2014,09,18,13,24,16.20
2014,09,18,13,25,16.20
2014,09,18,13,26,16.20
2014,09,18,13,27,16.30
2014,09,18,13,28,16.30
2014,09,18,13,29,16.30
2014,09,18,13,30,16.30
2014,09,18,13,31,16.30
2014,09,18,13,32,16.30
2014,09,18,13,33,16.30
2014,09,18,13,34,16.30
2014,09,18,13,35,16.30
2014,09,18,13,36,16.30
2014,09,18,13,37,16.30
2014,09,18,13,38,16.20
2014,09,18,13,39,16.20
2014,09,18,13,40,16.20
2014,09,18,13,41,16.20
2014,09,18,13,42,16.20
2014,09,18,13,43,16.20
2014,09,18,13,44,16.20
2014,09,18,13,45,16.20
2014,09,18,13,46,16.20
2014,09,18,13,47,16.20
2014,09,18,13,48,16.20
2014,09,18,13,49,16.20
2014,09,18,13,50,16.20
2014,09,18,13,51,16.20
2014,09,18,13,52,16.20
2014,09,18,13,53,16.20
2014,09,18,13,54,16.20
2014,09,18,13,55,16.20
2014,09,18,13,56,16.20
2014,09,18,13,57,16.20
2014,09,18,13,58,16.20
2014,09,18,13,59,16.20
2014,09,18,14,00,16.20
2014,09,18,14,01,16.20
2014,09,18,14,02,16.30
2014,09,18,14,03,16.30
2014,09,18,14,04,16.30
2014,09,18,14,05,16.30
2014,09,18,14,06,16.30
2014,09,18,14,07,16.40
2014,09,18,14,08,16.40
2014,09,18,14,09,16.40
2014,09,18,14,10,16.40
2014,09,18,14,11,16.40
2014,09,18,14,12,16.40
2014,09,18,14,13,16.40
2014,09,18,14,14,16.40
2014,09,18,14,15,16.40
2014,09,18,14,16,16.50
2014,09,18,14,17,16.50
2014,09,18,14,18,16.50
2014,09,18,14,19,16.60
2014,09,18,14,20,16.60
2014,09,18,14,21,16.60
2014,09,18,14,22,16.70
2014,09,18,14,23,16.70
2014,09,18,14,24,16.70
2014,09,18,14,25,16.80
2014,09,18,14,26,16.80
2014,09,18,14,27,16.80
2014,09,18,14,28,16.80
2014,09,18,14,29,16.80
2014,09,18,14,30,16.80
2014,09,18,14,31,16.80
2014,09,18,14,32,16.80
2014,09,18,14,33,16.80
2014,09,18,14,34,16.80
2014,09,18,14,35,16.80
2014,09,18,14,36,16.80
2014,09,18,14,37,16.80
2014,09,18,14,38,16.80
2014,09,18,14,39,16.80
2014,09,18,14,40,16.80
2014,09,18,14,41,16.80
2014,09,18,14,42,16.80
2014,09,18,14,43,16.80
2014,09,18,14,44,16.80
2014,09,18,14,45,16.80
2014,09,18,14,46,16.80
2014,09,18,14,47,16.80
2014,09,18,14,48,16.80
2014,09,18,14,49,16.80
2014,09,18,14,50,16.80
2014,09,18,14,51,16.80
2014,09,18,14,52,16.80
2014,09,18,14,53,16.80
2014,09,18,14,54,16.80
2014,09,18,14,55,16.80
2014,09,18,14,56,16.80
2014,09,18,14,57,16.80
2014,09,18,14,58,16.80
2014,09,18,14,59,16.80
2014,09,18,15,00,16.90
2014,09,18,15,01,16.80
2014,09,18,15,02,16.80
2014,09,18,15,03,16.80
2014,09,18,15,04,16.90
2014,09,18,15,05,16.90
2014,09,18,15,06,16.90
2014,09,18,15,07,16.90
2014,09,18,15,08,17.00
2014,09,18,15,09,17.00
2014,09,18,15,10,17.00
2014,09,18,15,11,17.00
2014,09,18,15,12,17.00
2014,09,18,15,13,17.00
2014,09,18,15,14,17.00
2014,09,18,15,15,17.00
2014,09,18,15,16,17.10
2014,09,18,15,17,17.10
2014,09,18,15,18,17.10
2014,09,18,15,19,17.10
2014,09,18,15,20,17.10
2014,09,18,15,21,17.10
2014,09,18,15,22,17.10
2014,09,18,15,23,17.00
2014,09,18,15,24,17.00
2014,09,18,15,25,17.00
2014,09,18,15,26,17.00
2014,09,18,15,27,17.00
2014,09,18,15,28,17.00
2014,09,18,15,29,16.90
2014,09,18,15,30,16.90
2014,09,18,15,31,16.90
2014,09,18,15,32,16.90
2014,09,18,15,33,16.90
2014,09,18,15,34,16.90
2014,09,18,15,35,16.90
2014,09,18,15,36,16.90
2014,09,18,15,37,16.90
2014,09,18,15,38,16.90
2014,09,18,15,39,16.90
2014,09,18,15,40,16.90
2014,09,18,15,41,16.90
2014,09,18,15,42,16.90
2014,09,18,15,43,16.90
2014,09,18,15,44,16.90
2014,09,18,15,45,16.90
2014,09,18,15,46,16.90
2014,09,18,15,47,16.90
2014,09,18,15,48,16.90
2014,09,18,15,49,16.90
2014,09,18,15,50,17.00
2014,09,18,15,51,17.00
2014,09,18,15,52,17.00
2014,09,18,15,53,17.00
2014,09,18,15,54,17.00
2014,09,18,15,55,17.00
2014,09,18,15,56,17.10
2014,09,18,15,57,17.10
2014,09,18,15,58,17.10
2014,09,18,15,59,17.10
2014,09,18,16,00,17.20
2014,09,18,16,01,17.20
2014,09,18,16,02,17.20
2014,09,18,16,03,17.20
2014,09,18,16,04,17.20
2014,09,18,16,05,17.20
2014,09,18,16,06,17.20
2014,09,18,16,07,17.20
2014,09,18,16,08,17.20
2014,09,18,16,09,17.20
2014,09,18,16,10,17.20
2014,09,18,16,11,17.30
2014,09,18,16,12,17.30
2014,09,18,16,13,17.30
2014,09,18,16,14,17.30
2014,09,18,16,15,17.30
2014,09,18,16,16,17.30
2014,09,18,16,17,17.30
2014,09,18,16,18,17.30
2014,09,18,16,19,17.30
2014,09,18,16,20,17.30
2014,09,18,16,21,17.30
2014,09,18,16,22,17.30
2014,09,18,16,23,17.30
2014,09,18,16,24,17.30
2014,09,18,16,25,17.30
2014,09,18,16,26,17.30
2014,09,18,16,27,17.30
2014,09,18,16,28,17.30
2014,09,18,16,29,17.30
2014,09,18,16,30,17.30
2014,09,18,16,31,17.30
2014,09,18,16,32,17.30
2014,09,18,16,33,17.30
2014,09,18,16,34,17.30
2014,09,18,16,35,17.30
2014,09,18,16,36,17.30
2014,09,18,16,37,17.30
2014,09,18,16,38,17.30
2014,09,18,16,39,17.30
2014,09,18,16,40,17.20
2014,09,18,16,41,17.20
2014,09,18,16,42,17.20
2014,09,18,16,43,17.20
2014,09,18,16,44,17.20
2014,09,18,16,45,17.20
2014,09,18,16,46,17.20
2014,09,18,16,47,17.20
2014,09,18,16,48,17.20
2014,09,18,16,49,17.20
2014,09,18,16,50,17.20
2014,09,18,16,51,17.20
2014,09,18,16,52,17.20
2014,09,18,16,53,17.20
2014,09,18,16,54,17.20
2014,09,18,16,55,17.20
2014,09,18,16,56,17.20
2014,09,18,16,57,17.20
2014,09,18,16,58,17.20
2014,09,18,16,59,17.20
2014,09,18,17,00,17.20
2014,09,18,17,01,17.30
2014,09,18,17,02,17.30
2014,09,18,17,03,17.30
2014,09,18,17,04,17.30
2014,09,18,17,05,17.30
2014,09,18,17,06,17.20
2014,09,18,17,07,17.20
2014,09,18,17,08,17.20
2014,09,18,17,09,17.10
2014,09,18,17,10,17.10
2014,09,18,17,11,17.00
2014,09,18,17,12,17.00
2014,09,18,17,13,16.90
2014,09,18,17,14,16.90
2014,09,18,17,15,16.80
2014,09,18,17,16,16.80
2014,09,18,17,17,16.80
2014,09,18,17,18,16.80
2014,09,18,17,19,16.80